Terminal Aerodrome Forecast
Issued by NWS Omaha/Valley, NE

Home | Current Version | Previous Version | Text Only | Print | Product List | Glossary On
Versions: 1 2 3 4 5 6 7 8 9 10 11 12 13 14 15 16 17 18 19 20 21 22 23 24 25 26 27 28 29 30 31 32 33 34 35 36 37 38 39 40
441
FTUS43 KOAX 120032 AAA
TAFOMA
TAF AMD
KOMA 120032Z 1201/1224 14006KT P6SM OVC020
      TEMPO 1201/1203 2SM -SN BR OVC015
     FM120700 36008KT P6SM OVC015
     FM121700 34013KT P6SM BKN050=

USA.gov is the U.S. government's official web portal to all federal, state and local government web resources and services.